When you browse on this site, cookies collect data to enhance your experience and personalize the content and advertising you see.
Visit our Privacy Policy to learn more. By continuing to use the site, you agree to this use of cookies and data.
  • In Czech Republic
  • List of Countries
  • For 7 days
  • Water Temperature
  • Weather Map
  • Weather Widgets
  • user-avatar
    Login

    Hourly Weather Le Blanc-Mesnil

    Today, 4 June, Thursday

    Time Temperature Precipitation Wind Pressure Humidity
    00:00 +14°C° 0.3 mm 4 mps 745 mmHg 76%
    01:00 +14°C° 0.1 mm 4 mps 745 mmHg 79%
    02:00 +13°C° 0.1 mm 4 mps 744 mmHg 81%
    03:00 +13°C° 0.1 mm 4 mps 744 mmHg 83%
    04:00 +13°C° 0.1 mm 4 mps 744 mmHg 83%
    05:00 +13°C° 0.1 mm 4 mps 744 mmHg 83%
    06:00 +13°C° 0.1 mm 4 mps 744 mmHg 83%
    07:00 +13°C° 0.1 mm 4 mps 744 mmHg 79%
    08:00 +14°C° 0.1 mm 4 mps 744 mmHg 76%
    09:00 +14°C° 0.1 mm 4 mps 745 mmHg 73%
    10:00 +14°C° 0.1 mm 3 mps 745 mmHg 73%
    11:00 +14°C° 0.1 mm 3 mps 745 mmHg 74%
    12:00 +14°C° 0.1 mm 3 mps 745 mmHg 74%
    13:00 +14°C° 0.1 mm 3 mps 745 mmHg 75%
    14:00 +14°C° 0.1 mm 4 mps 745 mmHg 75%
    15:00 +14°C° 0.1 mm 4 mps 745 mmHg 75%
    16:00 +14°C° 0.1 mm 4 mps 745 mmHg 76%
    17:00 +14°C° 0.1 mm 4 mps 745 mmHg 76%
    18:00 +13°C° 0.1 mm 4 mps 745 mmHg 77%
    19:00 +13°C° 0.2 mm 3 mps 745 mmHg 79%
    20:00 +12°C° 0.2 mm 3 mps 746 mmHg 82%
    21:00 +11°C° 0.2 mm 3 mps 746 mmHg 84%
    22:00 +11°C° 0 mm 3 mps 746 mmHg 83%
    23:00 +10°C° 0 mm 3 mps 746 mmHg 83%

    Tomorrow, 5 June, Friday

    Time Temperature Precipitation Wind Pressure Humidity
    00:00 +10°C° 0 mm 3 mps 746 mmHg 83%
    01:00 +9°C° 0 mm 3 mps 746 mmHg 83%
    02:00 +9°C° 0 mm 3 mps 746 mmHg 83%
    03:00 +9°C° 0 mm 3 mps 746 mmHg 84%
    04:00 +8°C° 0.2 mm 4 mps 745 mmHg 84%
    05:00 +9°C° 0.2 mm 5 mps 745 mmHg 85%
    06:00 +9°C° 0.2 mm 5 mps 744 mmHg 86%
    07:00 +10°C° 0.6 mm 5 mps 744 mmHg 87%
    08:00 +10°C° 0.6 mm 6 mps 744 mmHg 88%
    09:00 +11°C° 0.6 mm 6 mps 744 mmHg 89%
    10:00 +13°C° 0.3 mm 6 mps 744 mmHg 81%
    11:00 +15°C° 0.3 mm 6 mps 744 mmHg 72%
    12:00 +16°C° 0.3 mm 6 mps 744 mmHg 64%
    13:00 +16°C° 0.1 mm 7 mps 744 mmHg 61%
    14:00 +16°C° 0.1 mm 7 mps 744 mmHg 59%
    15:00 +16°C° 0.1 mm 7 mps 744 mmHg 56%
    16:00 +15°C° 0.2 mm 6 mps 744 mmHg 65%
    17:00 +13°C° 0.2 mm 5 mps 744 mmHg 73%
    18:00 +12°C° 0.2 mm 4 mps 744 mmHg 81%
    19:00 +11°C° 0.1 mm 4 mps 744 mmHg 82%
    20:00 +11°C° 0.1 mm 4 mps 745 mmHg 82%
    21:00 +11°C° 0.1 mm 3 mps 746 mmHg 83%
    22:00 +11°C° 0 mm 4 mps 746 mmHg 83%
    23:00 +10°C° 0 mm 4 mps 746 mmHg 83%

    Day after tomorrow, 6 June, Saturday

    Time Temperature Precipitation Wind Pressure Humidity
    00:00 +10°C° 0 mm 4 mps 746 mmHg 83%
    01:00 +10°C° 0 mm 4 mps 746 mmHg 83%
    02:00 +9°C° 0 mm 3 mps 746 mmHg 83%
    03:00 +9°C° 0 mm 3 mps 746 mmHg 83%
    04:00 +9°C° 0 mm 3 mps 747 mmHg 81%
    05:00 +10°C° 0 mm 4 mps 747 mmHg 80%
    06:00 +10°C° 0 mm 4 mps 747 mmHg 78%
    07:00 +12°C° 0.1 mm 4 mps 747 mmHg 73%
    08:00 +13°C° 0.1 mm 5 mps 747 mmHg 68%
    09:00 +14°C° 0.1 mm 5 mps 747 mmHg 64%
    10:00 +15°C° 0.1 mm 6 mps 747 mmHg 58%
    11:00 +16°C° 0.1 mm 6 mps 747 mmHg 51%
    12:00 +17°C° 0.1 mm 7 mps 747 mmHg 45%
    13:00 +16°C° 0 mm 7 mps 747 mmHg 46%
    14:00 +16°C° 0 mm 7 mps 747 mmHg 47%
    15:00 +15°C° 0 mm 7 mps 747 mmHg 49%
    16:00 +15°C° 0 mm 6 mps 748 mmHg 51%
    17:00 +14°C° 0 mm 6 mps 748 mmHg 53%
    18:00 +14°C° 0 mm 5 mps 748 mmHg 55%
    19:00 +12°C° 0 mm 5 mps 749 mmHg 58%
    20:00 +11°C° 0 mm 4 mps 749 mmHg 61%
    21:00 +10°C° 0 mm 4 mps 750 mmHg 64%
    22:00 +8°C° 0 mm 4 mps 750 mmHg 66%
    23:00 +8°C° 0 mm 4 mps 750 mmHg 68%

    7 June, Sunday

    Time Temperature Precipitation Wind Pressure Humidity
    00:00 +8°C° 0 mm 4 mps 750 mmHg 70%
    01:00 +7°C° 0 mm 4 mps 750 mmHg 72%
    02:00 +7°C° 0 mm 4 mps 750 mmHg 74%
    03:00 +7°C° 0 mm 4 mps 750 mmHg 75%
    04:00 +8°C° 0 mm 4 mps 750 mmHg 74%
    05:00 +8°C° 0 mm 4 mps 751 mmHg 73%
    06:00 +10°C° 0 mm 4 mps 751 mmHg 72%
    07:00 +11°C° 0 mm 4 mps 751 mmHg 67%
    08:00 +13°C° 0 mm 5 mps 751 mmHg 63%
    09:00 +14°C° 0 mm 5 mps 751 mmHg 58%
    10:00 +15°C° 0.2 mm 5 mps 751 mmHg 57%
    11:00 +16°C° 0.2 mm 5 mps 752 mmHg 57%
    12:00 +16°C° 0.2 mm 5 mps 752 mmHg 56%
    13:00 +17°C° 0.7 mm 5 mps 751 mmHg 58%
    14:00 +17°C° 0.7 mm 5 mps 751 mmHg 60%
    15:00 +17°C° 0.7 mm 5 mps 751 mmHg 62%
    16:00 +17°C° 0.9 mm 4 mps 752 mmHg 65%
    17:00 +17°C° 0.9 mm 4 mps 752 mmHg 69%
    18:00 +16°C° 0.9 mm 3 mps 752 mmHg 72%
    19:00 +14°C° 0.1 mm 3 mps 752 mmHg 75%
    20:00 +14°C° 0.1 mm 2 mps 753 mmHg 78%
    21:00 +13°C° 0.1 mm 2 mps 753 mmHg 81%
    22:00 +13°C° 0 mm 2 mps 753 mmHg 82%
    23:00 +12°C° 0 mm 2 mps 753 mmHg 83%

    8 June, Monday

    Time Temperature Precipitation Wind Pressure Humidity
    00:00 +12°C° 0 mm 2 mps 753 mmHg 84%
    01:00 +12°C° 0 mm 2 mps 753 mmHg 85%
    02:00 +12°C° 0 mm 2 mps 753 mmHg 85%
    03:00 +12°C° 0 mm 2 mps 753 mmHg 86%
    04:00 +12°C° 0.2 mm 2 mps 753 mmHg 87%
    05:00 +12°C° 0.2 mm 2 mps 754 mmHg 88%
    06:00 +13°C° 0.2 mm 2 mps 754 mmHg 89%
    07:00 +12°C° 0.2 mm 3 mps 754 mmHg 88%
    08:00 +12°C° 0.2 mm 3 mps 754 mmHg 87%
    09:00 +13°C° 0.2 mm 3 mps 755 mmHg 86%
    10:00 +13°C° 0.3 mm 3 mps 755 mmHg 84%
    11:00 +14°C° 0.3 mm 3 mps 755 mmHg 81%
    12:00 +16°C° 0.3 mm 3 mps 755 mmHg 79%
    13:00 +15°C° 0.5 mm 4 mps 755 mmHg 75%
    14:00 +17°C° 0.5 mm 4 mps 755 mmHg 72%
    15:00 +17°C° 0.5 mm 5 mps 755 mmHg 68%
    16:00 +17°C° 0.1 mm 4 mps 755 mmHg 68%
    17:00 +17°C° 0.1 mm 4 mps 756 mmHg 68%
    18:00 +15°C° 0.1 mm 4 mps 756 mmHg 68%
    19:00 +14°C° 0 mm 3 mps 756 mmHg 72%
    20:00 +13°C° 0 mm 3 mps 757 mmHg 76%
    21:00 +12°C° 0 mm 3 mps 757 mmHg 81%
    22:00 +12°C° 0 mm 2 mps 757 mmHg 82%
    23:00 +10°C° 0 mm 2 mps 758 mmHg 84%

    9 June, Tuesday

    Time Temperature Precipitation Wind Pressure Humidity
    00:00 +10°C° 0 mm 2 mps 758 mmHg 85%
    01:00 +10°C° 0 mm 2 mps 758 mmHg 85%
    02:00 +10°C° 0 mm 2 mps 758 mmHg 84%
    03:00 +9°C° 0 mm 2 mps 758 mmHg 84%
    04:00 +10°C° 0 mm 2 mps 758 mmHg 81%
    05:00 +10°C° 0 mm 2 mps 759 mmHg 79%
    06:00 +12°C° 0 mm 2 mps 759 mmHg 77%
    07:00 +13°C° 0 mm 2 mps 759 mmHg 69%
    08:00 +14°C° 0 mm 2 mps 759 mmHg 62%
    09:00 +16°C° 0 mm 3 mps 759 mmHg 54%
    10:00 +16°C° 0 mm 3 mps 759 mmHg 52%
    11:00 +17°C° 0 mm 3 mps 760 mmHg 50%
    12:00 +18°C° 0 mm 4 mps 760 mmHg 47%
    13:00 +18°C° 0 mm 4 mps 759 mmHg 48%
    14:00 +18°C° 0 mm 4 mps 759 mmHg 49%
    15:00 +18°C° 0 mm 4 mps 759 mmHg 49%
    16:00 +18°C° 0 mm 4 mps 759 mmHg 52%
    17:00 +17°C° 0 mm 3 mps 759 mmHg 55%
    18:00 +17°C° 0 mm 3 mps 759 mmHg 58%
    19:00 +14°C° 0 mm 3 mps 759 mmHg 61%
    20:00 +14°C° 0 mm 2 mps 759 mmHg 65%
    21:00 +12°C° 0 mm 2 mps 760 mmHg 69%
    22:00 +12°C° 0 mm 2 mps 759 mmHg 71%
    23:00 +11°C° 0 mm 1 mps 759 mmHg 74%
    Show more